Terug naar catalogus

FENGYUN 1C DEB

ActiefSSO
NORAD 30222·DEBRIS·🇨🇳 China

Gelanceerd May 10, 1999 vanaf Taiyuan Satellite Launch Center

Loading…

Volgende Passages (komende 24 uur)

TLE

VersSource: Space-Track

Epoch: Sep 14, 2026, 01:12 UTC

1 30222U 99025WF  26257.05009704 -.00000132  00000-0 -55714-4 0  9995
2 30222  98.8116 287.5658 0037090 347.6214  41.1015 14.04152113  7035

Volg FENGYUN 1C DEB in realtime met AllMySat

Download on the App Store